Flag for Canada Weather past 2 weeks in Colchester County, Nova Scotia, Canada

Now
66 °F

Partly sunny.


Feels Like: 66 °F
Forecast: N/A
Wind: 18 mph from Southwest

Location: Halifax International Airport

Current Time: Sep 22, 2014 at 6:15:14 PM

Latest Report: Sep 22, 2014 at 5:00 PM


Visibility: 15 mi

Pressure: 29.60 "Hg

Humidity: 88%

Dew point: 63 °F

Location of Colchester CountyLocation

Historic Weather in Colchester County — Graph

°F

Colchester County temperature yesterday

Maximum temperature yesterday: 73 °F (at 2:00 PM)
Minimum temperature yesterday: 55 °F (at 12:00 AM)
Average temperature yesterday: 64 °F

Past Weeks' High & Low Weather Summary

 TemperatureHumidityPressure
High75 °F (Sep 22, 1:00 PM)100% (Sep 10, 4:00 AM)30.48 "Hg (Sep 10, 4:00 AM)
Low37 °F (Sep 19, 7:00 AM)28% (Sep 8, 6:00 PM)29.38 "Hg (Sep 22, 5:55 AM)
Average57 °F77%30.08 "Hg
* Reported Sep 7 5:00 PM — Sep 22 5:00 PM, Colchester County, Weather by CustomWeather, © 2014

Note: Actual official high and low records may vary slightly from our data, if they occured in-between our weather recording intervals... More about our weather records

Advertising

Colchester County weather history for previous 24 hours

 ConditionsComfort  
Time TempWeatherWind HumidityBarometerVisibility
5:00 PM
Sep 22
66 °FPartly sunny.18 mph88%29.60 "Hg15 mi
4:00 PM72 °FScattered clouds.20 mph78%29.59 "Hg15 mi
3:00 PM73 °FPartly sunny.15 mph78%29.57 "Hg15 mi
2:00 PM73 °FPartly sunny.24 mph78%29.57 "Hg15 mi
1:00 PM75 °FPartly sunny.16 mph74%29.56 "Hg15 mi
12:00 PM73 °FPartly sunny.21 mph78%29.54 "Hg15 mi
11:00 AM70 °FPartly sunny.14 mph88%29.52 "Hg15 mi
10:00 AM68 °FLow clouds.10 mph94%29.49 "Hg15 mi
9:00 AM68 °FBroken clouds.12 mph94%29.44 "Hg15 mi
8:00 AM68 °FSprinkles. Fog.14 mph94%29.43 "Hg3 mi
7:00 AM68 °FMild.25 mph100%29.43 "Hg1 mi
6:00 AM70 °FLots of rain. Fog.33 mph94%29.38 "Hg3 mi
5:55 AM70 °FLots of rain. Fog.32 mph94%29.38 "Hg3 mi
5:00 AM70 °FMild.28 mph94%29.39 "Hg2 mi
4:00 AM68 °FLight rain. Fog.33 mph100%29.47 "Hg3 mi
3:00 AM68 °FHeavy rain. Fog.26 mph100%29.54 "Hg1 mi
2:00 AM68 °FMild.15 mph94%29.60 "Hg1 mi
1:00 AM68 °FHeavy rain. Fog.14 mph94%29.68 "Hg3 mi
12:57 AM68 °FHeavy rain. Fog.12 mph94%29.69 "Hg1 mi
12:00 AM68 °FRain. Fog.16 mph94%29.74 "Hg2 mi
11:53 PM
Sep 21
68 °FLight rain. Fog.16 mph94%29.75 "Hg3 mi
11:00 PM68 °FRain showers. Fog.15 mph94%29.79 "Hg2 mi
10:00 PM68 °FSprinkles. Fog.23 mph100%29.83 "Hg3 mi
9:00 PM66 °FSprinkles. Fog.16 mph100%29.88 "Hg4 mi
8:00 PM68 °FRain showers. Fog.21 mph100%29.90 "Hg3 mi
7:00 PM66 °FSprinkles. Fog.15 mph100%29.95 "Hg4 mi
6:00 PM66 °FSprinkles. Low clouds.9 mph100%29.97 "Hg10 mi
Weather by CustomWeather, © 2014

See weather overviewHow to use our weather pages